Time,TemperatureF,DewpointF,PressureIn,WindDirection,WindDirectionDegrees,WindSpeedMPH,WindSpeedGustMPH,Humidity,HourlyPrecipIn,Conditions,Clouds,dailyrainin,SoftwareType,DateUTC
2013-12-06 00:00:00,-21.0,-31.0,-100.00,North,-999,-999.0,-999.0,60,-99.99,,,0.00,,2013-12-06 07:00:00,
2013-12-06 00:52:00,-21.0,-31.0,-100.00,North,-999,-999.0,-999.0,60,-99.99,,,0.00,,2013-12-06 07:52:00,
2013-12-06 07:00:00,-15.0,-24.0,-100.00,North,-999,-999.0,-999.0,60,-99.99,,,-99.99,,2013-12-06 14:00:00,
2013-12-06 07:53:00,-15.0,-24.0,-100.00,North,-999,-999.0,-999.0,60,-99.99,,,-99.99,,2013-12-06 14:53:00,
2013-12-06 08:00:00,-12.0,-22.0,-100.00,North,-999,-999.0,-999.0,60,-99.99,,,-99.99,,2013-12-06 15:00:00,
2013-12-06 08:54:00,-12.0,-22.0,-100.00,North,-999,-999.0,-999.0,60,-99.99,,,-99.99,,2013-12-06 15:54:00,
2013-12-06 09:00:00,-6.0,-17.0,-100.00,North,-999,-999.0,-999.0,60,-99.99,,,-99.99,,2013-12-06 16:00:00,
2013-12-06 09:53:00,-6.0,-17.0,-100.00,North,-999,-999.0,-999.0,60,-99.99,,,-99.99,,2013-12-06 16:53:00,
2013-12-06 12:00:00,4.0,-7.0,-100.00,North,-999,-999.0,-999.0,60,-99.99,,,0.00,,2013-12-06 19:00:00,
2013-12-06 12:52:00,4.0,-7.0,-100.00,North,-999,-999.0,-999.0,60,-99.99,,,0.00,,2013-12-06 19:52:00,
2013-12-06 13:00:00,2.0,-8.0,-100.00,North,-999,-999.0,-999.0,61,-99.99,,,0.00,,2013-12-06 20:00:00,
2013-12-06 13:52:00,2.0,-8.0,-100.00,North,-999,-999.0,-999.0,61,-99.99,,,0.00,,2013-12-06 20:52:00,
2013-12-06 15:00:00,1.0,-9.0,-100.00,North,-999,-999.0,-999.0,61,-99.99,,,0.00,,2013-12-06 22:00:00,
2013-12-06 15:53:00,1.0,-9.0,-100.00,North,-999,-999.0,-999.0,61,-99.99,,,0.00,,2013-12-06 22:53:00,
2013-12-06 16:00:00,0.0,-10.0,-100.00,North,-999,-999.0,-999.0,61,-99.99,,,0.00,,2013-12-06 23:00:00,
2013-12-06 16:52:00,0.0,-10.0,-100.00,North,-999,-999.0,-999.0,61,-99.99,,,0.00,,2013-12-06 23:52:00,
2013-12-06 19:00:00,-4.0,-14.0,-100.00,North,-999,-999.0,-999.0,61,-99.99,,,0.01,,2013-12-07 02:00:00,
2013-12-06 19:52:00,-4.0,-14.0,-100.00,North,-999,-999.0,-999.0,61,-99.99,,,0.01,,2013-12-07 02:52:00,
2013-12-06 20:00:00,-6.0,-16.0,-100.00,North,-999,-999.0,-999.0,61,-99.99,,,0.01,,2013-12-07 03:00:00,
2013-12-06 20:53:00,-6.0,-16.0,-100.00,North,-999,-999.0,-999.0,61,-99.99,,,0.01,,2013-12-07 03:53:00,
2013-12-06 22:00:00,-5.0,-15.0,-100.00,North,-999,-999.0,-999.0,61,-99.99,,,0.01,,2013-12-07 05:00:00,
2013-12-06 22:53:00,-5.0,-15.0,-100.00,North,-999,-999.0,-999.0,61,-99.99,,,0.01,,2013-12-07 05:53:00,
2013-12-06 23:00:00,-5.0,-15.0,-100.00,North,-999,-999.0,-999.0,61,-99.99,,,0.01,,2013-12-07 06:00:00,
2013-12-06 23:53:00,-5.0,-15.0,-100.00,North,-999,-999.0,-999.0,61,-99.99,,,0.01,,2013-12-07 06:53:00,